SCP
0 0 0 0 0 0 0 0 0 0 1 1 1 0 0 0 1 1 1 1 2 2 3 3 3 4 4 4 3 2 1 1 1 2 2 2 2 2 2 2 2 2 2 2
0 0 0 0 0 0 0 0 0 1 1 1 1 1 1 1 1 1 1 1 2 2 3 3 3 3 4 4 3 3 2 2 2 2 2 2 2 2 2 2 3 3 3 2
0 0 0 0 0 0 0 1 1 1 1 1 1 1 1 1 1 1 1 2 2 2 3 3 3 4 3 3 3 3 3 2 2 2 2 2 2 2 3 3 3 3 3 3
0 0 0 0 1 1 1 1 1 1 1 1 1 1 1 2 2 2 2 2 2 2 3 3 4 4 4 4 4 3 3 3 3 3 2 2 2 2 3 3 3 3 3 3
0 0 1 1 1 1 1 1 1 1 1 1 1 1 1 2 2 2 2 2 2 2 2 3 3 4 4 4 4 3 3 3 3 3 3 3 3 3 4 4 3 3 3 3
1 1 1 1 1 1 1 1 1 1 1 1 1 1 1 1 2 2 2 2 2 2 3 3 4 4 4 4 4 4 3 3 3 4 4 4 4 4 4 4 3 3 3 3
1 1 1 1 1 1 2 2 1 1 1 1 1 1 1 2 2 2 2 2 2 3 3 4 5 5 6 5 5 4 4 4 5 5 5 5 5 5 4 4 3 3 3 3
1 1 1 1 1 2 2 2 1 1 1 1 1 2 2 2 3 3 2 2 2 3 5 6 6 7 7 6 6 6 6 6 7 7 5 4 4 4 4 4 3 3 2 2
2 2 2 2 1 2 2 2 1 1 1 1 2 2 3 3 3 3 3 3 3 4 6 7 7 7 8 8 8 8 8 8 8 6 5 4 3 3 3 3 3 2 2 2
2 2 2 2 1 2 2 2 1 1 1 1 2 3 3 3 4 4 4 4 4 5 6 7 7 7 8 9 9 8 8 8 7 5 4 4 3 3 2 3 2 2 2 2
2 2 2 2 1 1 1 1 1 1 1 1 2 2 3 4 4 5 5 5 5 5 6 6 6 7 7 8 8 7 7 6 5 4 3 3 3 2 2 2 2 2 2 2
2 2 2 1 1 1 1 1 1 1 1 1 1 2 2 3 3 4 4 5 5 5 5 6 6 6 7 7 7 6 5 4 3 2 2 2 2 2 2 1 1 1 1 1
2 2 1 1 1 0 0 0 0 1 1 1 1 1 2 2 2 3 4 4 4 4 4 5 5 6 7 7 7 6 4 3 2 2 2 2 2 2 2 1 1 0 0 0
2 1 1 1 0 0 0 0 0 0 1 1 1 1 2 2 2 3 3 3 3 3 3 4 4 6 6 6 6 5 3 2 2 2 2 2 2 1 1 1 1 1 1 0
1 1 1 0 0 0 0 0 0 0 0 0 1 1 1 1 2 2 2 2 2 2 3 3 4 5 5 5 4 4 3 2 2 2 2 1 1 1 1 1 1 2 1 1
1 1 1 0 0 0 0 0 0 0 0 0 0 1 1 1 1 1 1 1 1 2 2 3 3 4 4 4 3 3 3 2 1 1 1 1 1 1 1 1 1 1 1 1
1 0 0 0 0 0 0 0 0 0 0 0 0 0 0 0 0 0 1 1 1 1 2 2 2 3 3 3 3 3 2 1 1 1 1 1 1 1 1 1 1 1 1 1
0 0 0 0 0 0 0 0 0 0 0 0 0 0 0 0 0 0 0 1 1 1 1 1 2 2 2 2 2 2 2 1 1 1 1 1 1 1 1 1 1 1 1 1
0 0 0 0 0 0 0 0 0 0 0 0 0 0 0 0 0 1 1 1 1 1 1 1 1 1 1 1 1 1 1 1 1 1 1 1 1 1 1 1 1 1 1 1
0 0 0 0 0 0 0 0 0 0 0 0 0 0 0 1 1 1 1 1 1 1 1 1 1 1 1 1 0 0 1 1 1 1 1 1 1 0 0 1 1 1 1 1
0 0 0 0 0 0 0 0 0 0 0 0 0 0 1 1 1 1 1 1 1 1 1 1 1 1 0 0 0 0 0 0 1 1 1 1 1 1 1 1 1 1 1 2
0 0 0 0 0 0 0 0 0 0 0 0 0 1 1 1 1 1 1 1 1 1 0 0 0 0 0 0 0 0 0 0 1 1 1 0 0 0 1 1 1 1 1 1
0 0 0 0 0 0 0 0 0 0 0 0 0 1 1 1 1 1 1 1 1 0 0 0 0 0 0 0 0 0 0 1 1 1 1 0 0 0 1 1 1 1 1 1
0 0 0 0 0 0 0 0 0 0 0 0 0 0 1 1 1 0 0 0 0 0 0 0 0 0 0 0 0 1 1 1 1 0 0 0 0 1 1 1 1 1 0 0
0 0 0 0 0 0 0 0 0 0 0 0 0 0 0 0 0 0 0 0 0 0 0 0 0 0 0 0 1 1 1 1 1 0 0 0 0 1 1 1 1 0 0 0
0 0 0 0 0 0 0 0 0 0 0 0 0 0 0 0 0 1 0 0 0 0 0 1 0 0 0 0 0 0 1 1 0 0 0 0 0 0 0 0 0 0 0 0
0 0 0 0 0 0 0 0 0 0 0 0 0 0 0 0 1 1 1 0 0 0 1 1 1 0 0 0 0 0 0 0 0 0 0 0 0 0 0 0 0 0 0 0
Wind_Speed
12 10 11 15 14 11 9 8 8 6 5 3 2 2 3 4 6 6 8 10 9 9 9 8 7 7 6 5 5 4 4 4 4 4 3 3 4 4 4 5 6 5 5 6
15 15 14 15 12 11 10 9 9 6 2 3 3 4 3 2 3 5 6 8 10 10 10 9 8 8 7 6 6 5 5 4 4 3 4 4 4 5 5 5 5 5 6 7
13 15 15 13 10 10 9 6 6 4 1 3 2 3 2 2 2 2 4 6 9 10 9 9 8 8 7 7 6 6 6 5 5 4 4 4 5 4 4 5 5 5 6 6
12 13 15 10 5 4 4 4 4 3 1 2 3 3 2 3 3 2 3 5 7 9 9 10 9 9 7 8 7 7 7 7 6 5 5 4 4 5 4 4 5 5 6 7
11 13 13 9 6 9 6 4 5 3 5 4 3 0 1 5 5 4 3 4 6 7 9 9 10 10 9 8 8 8 8 7 6 5 5 4 5 5 4 4 5 6 7 7
12 14 13 3 3 4 6 2 6 8 8 7 6 3 3 5 4 4 4 4 5 7 7 8 8 9 9 8 8 8 7 6 5 4 5 5 5 5 5 5 6 7 7 7
12 13 6 5 4 3 0 1 6 6 5 5 6 5 2 1 2 3 3 4 5 5 5 6 7 7 7 7 7 6 5 5 5 5 5 6 6 5 5 6 7 7 8 8
6 8 2 7 6 4 1 4 6 6 5 5 5 7 5 3 3 2 3 4 5 4 5 5 6 6 6 6 5 4 4 5 5 5 6 6 5 5 6 7 7 8 8 9
1 2 4 4 4 1 0 2 5 7 8 7 7 7 6 5 4 2 1 2 3 3 4 5 5 5 6 5 4 4 5 5 5 5 5 5 6 7 7 7 7 7 6 6
1 5 7 6 6 3 4 6 6 8 9 9 10 10 9 8 6 4 2 1 2 3 3 4 5 6 5 4 4 4 5 5 5 6 7 7 7 7 7 7 6 6 5 5
0 5 6 8 7 7 7 7 9 10 11 12 12 12 11 9 8 7 5 4 2 1 1 2 3 3 4 3 4 5 5 5 6 8 8 7 8 8 8 7 7 7 5 5
2 4 5 5 4 6 8 10 11 11 12 12 13 12 11 10 9 8 7 6 5 3 2 2 1 2 3 3 3 4 5 6 7 7 7 7 6 7 11 13 12 14 13 10
5 6 8 7 7 8 9 10 10 11 12 11 12 12 11 10 9 9 8 8 6 5 5 4 3 2 2 3 3 5 6 6 7 7 7 7 7 7 7 7 11 14 15 15
7 7 7 8 8 8 8 9 10 11 11 11 11 11 11 10 10 10 9 9 8 7 6 6 5 4 3 3 3 5 7 8 9 8 8 8 8 8 7 6 6 6 10 16
6 7 8 7 8 8 8 9 9 10 10 10 10 10 10 10 9 9 9 9 9 8 8 8 7 7 6 6 6 7 8 8 8 9 9 9 9 9 8 7 6 5 5 5
8 9 8 8 8 9 10 10 9 9 9 9 8 9 9 9 9 9 9 9 9 9 8 7 7 7 8 8 9 8 8 12 11 9 10 9 8 8 8 6 6 5 5 5
7 8 8 8 8 8 7 7 7 7 8 9 9 9 9 9 9 8 9 10 9 8 7 6 7 9 10 9 10 10 10 10 11 9 9 9 8 8 7 6 5 5 5 5
11 10 9 7 6 5 6 7 8 9 9 10 10 9 9 9 9 9 9 10 9 8 6 7 9 11 11 10 8 9 10 11 10 9 8 8 8 7 7 7 6 7 5 5
9 7 5 4 4 5 6 7 8 8 9 10 10 9 9 9 8 8 9 9 10 7 6 8 10 11 11 8 10 8 11 12 11 10 9 8 8 8 7 6 5 5 5 4
5 3 2 3 4 5 7 8 9 9 10 10 10 10 9 9 9 9 9 9 7 5 5 7 10 10 9 8 12 12 13 13 12 10 10 9 7 6 5 5 5 4 3 2
1 2 4 6 7 8 8 9 10 11 10 10 10 10 9 9 9 9 8 9 5 3 6 8 7 7 8 10 13 13 13 11 10 9 9 8 7 6 5 4 4 3 2 2
4 6 7 8 9 9 9 9 11 12 11 9 10 10 10 10 10 9 8 6 6 2 5 8 8 8 10 13 12 13 12 11 10 8 8 7 7 6 4 4 4 3 2 2
6 7 8 9 10 11 11 11 11 11 10 10 11 11 11 9 9 9 9 6 5 4 6 7 6 7 10 11 11 11 10 10 9 9 8 8 7 6 5 4 3 3 2 2
8 9 9 10 11 12 12 12 11 9 11 11 11 10 9 8 7 7 7 6 4 4 7 5 4 6 9 8 9 9 9 9 9 8 8 8 7 6 5 4 3 2 2 3
10 10 11 11 11 10 10 10 11 10 11 8 10 10 9 7 7 8 8 9 8 8 8 5 2 5 8 7 8 8 8 8 8 9 8 7 7 7 5 4 3 3 4 4
9 9 9 8 9 8 10 9 9 8 9 9 9 8 9 8 8 8 7 9 10 7 7 6 5 6 7 7 7 8 8 7 7 7 8 7 7 7 6 6 7 5 5 4
10 8 7 8 8 8 8 8 9 9 9 8 9 9 10 10 9 8 9 8 8 7 7 6 6 6 6 7 7 7 6 6 6 6 7 7 7 6 6 7 5 5 5 6
Wind_Direction
289 266 233 241 247 250 258 268 274 266 254 252 230 129 125 149 161 168 162 163 161 159 158 162 164 165 177 182 177 180 182 206 215 217 225 238 248 254 257 262 272 275 277 277
290 285 277 274 273 269 264 267 275 274 270 90 92 103 104 124 171 174 174 174 169 167 165 170 173 178 182 183 177 173 192 215 220 223 234 242 248 251 255 259 268 272 275 278
282 292 293 282 283 281 280 280 289 298 67 107 89 82 99 143 206 207 187 179 172 171 170 171 176 179 181 181 178 182 194 213 222 225 234 243 260 266 269 271 272 272 272 273
277 280 275 281 295 299 286 286 269 242 183 137 124 118 146 160 171 195 201 180 170 172 171 173 177 180 182 185 184 192 200 210 219 225 234 239 249 259 262 268 273 275 274 274
273 271 267 279 344 350 329 319 336 19 44 43 66 256 198 147 152 174 193 173 164 176 178 175 178 178 179 192 193 199 207 209 216 222 232 241 249 255 261 263 267 269 272 268
261 270 279 314 68 1 345 320 12 41 37 8 345 326 79 124 158 172 169 157 162 176 173 168 174 173 178 194 200 208 211 208 210 216 228 242 250 255 262 263 267 271 270 269
258 271 284 47 84 72 317 9 359 30 32 5 346 331 9 142 151 138 141 154 162 170 167 164 165 167 183 199 207 209 210 208 209 215 223 234 240 242 250 259 265 268 272 271
253 277 326 32 49 61 15 327 342 356 5 6 332 324 348 5 65 114 143 164 170 165 156 152 157 168 190 207 209 204 209 217 220 220 236 247 238 243 245 250 259 260 261 264
188 162 122 67 81 131 285 350 1 359 357 350 343 353 0 19 49 71 132 152 157 160 158 157 162 174 201 209 207 214 220 225 229 235 235 243 249 252 252 248 252 258 263 269
21 111 130 139 136 121 67 37 21 17 14 12 11 9 13 25 29 38 41 72 112 146 173 180 182 193 209 208 203 217 227 229 233 239 242 241 238 248 253 254 256 262 269 277
141 113 96 62 53 55 57 48 39 33 30 26 24 21 21 30 25 24 26 27 52 84 178 196 190 202 206 212 209 220 232 241 247 248 248 246 243 241 244 244 244 248 260 267
86 101 97 88 65 59 62 58 52 45 43 39 34 30 29 30 27 22 24 22 19 10 340 307 252 226 215 211 218 231 246 250 256 259 258 256 256 258 240 237 239 231 233 241
64 75 97 103 76 62 68 69 63 55 47 42 36 30 31 28 26 22 20 17 11 357 344 330 310 285 262 234 234 243 258 266 269 271 272 271 269 268 269 251 236 234 236 238
78 82 90 81 74 59 56 61 63 56 46 39 33 27 23 20 19 18 14 7 1 352 344 338 329 322 321 308 279 267 269 269 266 265 265 266 267 268 266 264 261 250 235 233
95 100 99 89 79 66 52 48 49 44 36 30 25 20 16 13 10 8 7 3 357 350 352 346 341 346 347 331 311 294 283 276 272 272 270 270 270 269 266 265 263 264 270 239
109 106 104 91 72 58 48 39 32 26 20 15 10 7 4 360 359 359 358 355 349 345 344 341 343 347 342 328 314 299 286 278 274 277 276 273 270 270 268 267 266 268 274 276
118 103 89 79 68 52 37 25 15 7 2 359 356 355 354 353 351 353 351 348 343 335 336 345 359 351 337 325 316 307 301 296 282 273 272 272 273 274 274 272 272 273 270 270
82 80 74 62 47 33 17 9 4 0 355 347 343 346 345 343 343 343 339 335 329 328 348 7 5 343 325 320 320 312 308 303 298 288 281 277 279 279 274 271 275 280 275 264
93 89 82 63 29 8 357 351 347 345 341 337 334 333 332 332 335 334 333 327 317 321 355 358 345 325 317 339 342 319 310 305 301 297 291 281 272 271 272 274 275 274 274 278
90 73 30 357 351 348 342 342 340 335 330 327 325 323 323 326 328 323 320 310 311 334 344 341 326 316 325 351 342 319 308 301 297 297 297 293 292 286 282 283 282 283 289 300
16 343 338 339 342 339 338 337 329 321 318 319 318 317 319 322 318 312 306 305 316 352 328 318 308 328 344 339 319 309 305 304 305 305 303 300 301 299 294 293 291 292 303 305
344 337 334 329 327 325 325 321 314 311 313 317 318 317 314 309 304 301 298 298 311 345 317 318 329 354 341 323 314 309 307 308 311 314 312 312 309 303 297 293 295 303 305 297
327 323 319 317 316 313 312 309 304 306 312 312 307 302 298 296 295 296 298 304 317 329 312 319 335 332 321 314 313 312 318 323 323 322 322 322 319 316 315 312 321 324 323 320
314 310 308 308 308 304 300 299 302 301 296 292 290 291 293 293 294 299 309 320 324 309 308 321 320 319 308 311 319 326 332 332 330 328 327 325 324 328 339 334 334 346 359 3
301 300 297 296 295 294 300 303 300 294 292 297 304 310 309 310 315 320 320 319 326 320 314 320 314 318 316 326 333 335 335 339 338 332 329 331 335 337 342 349 5 17 17 14
287 285 288 291 291 290 289 290 293 300 307 311 313 315 316 316 316 314 314 320 326 327 319 330 342 330 329 334 339 338 338 338 337 338 341 344 347 349 357 6 13 15 14 13
292 288 282 281 290 299 307 311 311 312 314 316 319 319 318 318 318 321 325 325 327 331 337 343 343 342 344 347 348 350 348 348 349 348 347 350 354 357 0 6 10 13 16 18